Clarksville, TN

9:27 PM CDT on April 24, 2017 (GMT -0500)
Outlaw

Weather History for KCKV - November, 2010

Change the Weather History Date:

Monday, November 22, 2010

  Actual Average Record
Temperature  
Mean Temperature 68 °F 46 °F  
Max Temperature 75 °F 56 °F 75 °F (1963)
Min Temperature 61 °F 35 °F 14 °F (1964)
Degree Days  
Heating Degree Days 0    
Month to date heating degree days 326  
Since 1 July heating degree days 502  
Cooling Degree Days 3    
Month to date cooling degree days 3  
Year to date cooling degree days 1953  
Growing Degree Days 17 (Base 50)    
Moisture  
Dew Point 54 °F    
Average Humidity 61    
Maximum Humidity 72    
Minimum Humidity 49    
Precipitation  
Precipitation 0.00 in 0.16 in 1.67 in (1953)
Month to date precipitation 1.67 3.11  
Year to date precipitation 33.46 43.68  
Sea Level Pressure  
Sea Level Pressure 30.05 in    
Wind  
Wind Speed 15 mph (South)    
Max Wind Speed 24 mph    
Max Gust Speed 33 mph    
Visibility 10 miles    
Events      
T = Trace of Precipitation, MM = Missing Value Source: NWS Daily Summary

Daily Weather History Graph

Daily Weather History Graph

Search for Another Location

Airport or City:

Trip Planner

Search our weather history database for the weather conditions in past years. The results will help you decide how hot, cold, wet, or windy it might be!

Date:

Astronomy

Nov. 22, 2010 Rise Set
Actual Time 6:34 AM CST 4:36 PM CST
Civil Twilight 6:06 AM CST 5:04 PM CST
Nautical Twilight 5:35 AM CST 5:36 PM CST
Astronomical Twilight 5:04 AM CST 6:07 PM CST
Moon 5:20 PM CST (11/22) 7:33 AM CST (11/22)
Length of Visible Light 10h 58m
Length of Day
10h 02m
Full, 99% of the Moon is Illuminated
Nov 22
Full
Nov 28
Last Quarter
Dec 5
New
Dec 13
First Quarter
Dec 21
Full

Hourly Weather History & Observations

Time (CST) Temp. Dew Point Humidity Pressure Visibility Wind Dir Wind Speed Gust Speed Precip Events Conditions
12:52 AM 64.9 °F 50.0 °F 58% 30.12 in 10.0 mi South 15.0 mph - N/A   Mostly Cloudy
1:52 AM 64.0 °F 50.0 °F 60% 30.13 in 10.0 mi South 15.0 mph - N/A   Overcast
2:52 AM 64.0 °F 50.0 °F 60% 30.14 in 10.0 mi South 15.0 mph - N/A   Overcast
3:52 AM 62.1 °F 50.0 °F 65% 30.14 in 10.0 mi South 12.7 mph - N/A   Mostly Cloudy
4:52 AM 62.1 °F 51.1 °F 67% 30.15 in 10.0 mi South 9.2 mph - N/A   Overcast
5:52 AM 61.0 °F 52.0 °F 72% 30.14 in 10.0 mi South 12.7 mph - N/A   Mostly Cloudy
6:52 AM 63.0 °F 53.1 °F 70% 30.12 in 10.0 mi SSW 13.8 mph 23.0 mph N/A   Clear
8:52 AM 66.0 °F 55.9 °F 70% 30.13 in 10.0 mi South 20.7 mph 28.8 mph N/A   Partly Cloudy
9:52 AM 66.9 °F 55.9 °F 68% 30.13 in 10.0 mi South 17.3 mph 25.3 mph N/A   Partly Cloudy
10:52 AM 71.1 °F 55.9 °F 59% 30.10 in 10.0 mi South 16.1 mph 28.8 mph N/A   Clear
11:52 AM 73.0 °F 55.0 °F 53% 30.05 in 10.0 mi SSW 17.3 mph 27.6 mph N/A   Clear
12:52 PM 73.9 °F 55.0 °F 52% 30.02 in 10.0 mi South 15.0 mph 26.5 mph N/A   Clear
1:52 PM 73.0 °F 54.0 °F 51% 30.01 in 10.0 mi SSW 16.1 mph 28.8 mph N/A   Scattered Clouds
2:52 PM 73.0 °F 54.0 °F 51% 30.00 in 10.0 mi SSW 16.1 mph 21.9 mph N/A   Overcast
3:52 PM 72.0 °F 54.0 °F 53% 29.99 in 10.0 mi South 9.2 mph 19.6 mph N/A   Mostly Cloudy
4:52 PM 72.0 °F 54.0 °F 53% 29.99 in 10.0 mi South 13.8 mph 19.6 mph N/A   Overcast
5:52 PM 71.1 °F 53.1 °F 53% 29.99 in 10.0 mi South 15.0 mph 26.5 mph N/A   Scattered Clouds
6:52 PM 69.1 °F 53.1 °F 57% 29.99 in 10.0 mi South 10.4 mph 20.7 mph N/A   Scattered Clouds
7:52 PM 69.1 °F 53.1 °F 57% 29.99 in 10.0 mi South 11.5 mph 19.6 mph N/A   Mostly Cloudy
8:52 PM 68.0 °F 53.1 °F 59% 29.97 in 10.0 mi South 16.1 mph 20.7 mph N/A   Scattered Clouds
9:52 PM 68.0 °F 55.0 °F 63% 29.96 in 10.0 mi South 18.4 mph 25.3 mph N/A   Mostly Cloudy
10:52 PM 68.0 °F 55.9 °F 65% 29.94 in 10.0 mi South 17.3 mph 28.8 mph N/A   Partly Cloudy
11:52 PM 69.1 °F 57.9 °F 68% 29.92 in 10.0 mi South 15.0 mph 27.6 mph N/A   Clear